GFSCGP_500_spd_012.txt.gz
Wind_Speed
6 3 3 4 8 7 8 9 8 9 7 7 10 11 9 13 13 15 15 14 16 19 21 23 25 28 30 32 36 39 42 42 43 45 47 49 51 52 52 54 53 52 52 55
5 8 9 9 9 11 8 11 12 14 16 12 14 16 17 14 13 18 21 23 26 25 26 28 28 31 35 33 35 40 43 46 47 50 51 54 55 54 54 54 56 58 58 58
6 7 8 9 10 11 12 11 13 13 15 21 19 18 17 17 18 19 19 19 21 22 28 33 32 32 31 35 36 37 39 45 50 51 53 54 54 53 54 58 58 58 60 61
9 11 12 14 13 11 14 15 14 13 14 18 18 18 19 20 21 23 26 24 22 22 29 33 33 32 32 34 35 36 38 44 49 51 55 57 59 59 58 57 58 60 60 61
12 12 14 17 17 15 14 16 17 16 18 18 18 16 20 26 28 30 33 34 32 33 33 34 36 39 42 42 43 44 45 47 51 49 50 56 57 58 60 58 58 59 59 58
15 13 15 18 20 17 16 14 18 18 21 19 19 17 24 29 33 39 42 40 44 45 45 43 44 47 49 49 49 47 48 51 52 54 54 55 57 56 57 56 57 58 60 60
18 16 17 18 20 17 14 14 17 20 19 21 25 21 28 30 35 36 36 42 46 44 46 47 49 53 54 56 54 53 53 55 57 60 60 60 59 60 61 61 63 65 68 68
19 18 18 18 19 14 16 16 17 19 23 20 21 20 23 29 30 33 39 44 43 44 49 49 52 53 55 56 60 59 58 60 62 61 61 61 62 62 62 64 67 69 69 69
16 18 17 19 17 16 17 19 22 25 30 31 26 19 16 28 23 35 37 43 44 47 47 49 50 50 52 58 59 59 59 59 59 60 62 63 63 65 67 68 70 68 69 69
13 14 17 17 17 18 21 22 31 34 35 35 33 28 26 24 29 31 36 44 45 45 46 46 49 53 56 54 54 53 56 58 61 63 65 66 68 70 71 71 71 71 72 71
12 13 17 18 21 24 26 29 33 36 36 39 44 37 31 34 42 45 45 43 44 43 44 49 53 49 50 54 54 56 58 60 63 65 69 71 73 74 73 74 75 73 72 70
16 16 20 23 28 30 27 25 30 38 40 39 44 46 40 43 43 47 44 40 41 45 49 50 48 50 54 56 60 60 61 64 69 70 72 72 74 76 77 76 73 71 70 67
22 21 21 27 30 33 29 25 33 40 43 45 47 47 41 45 48 49 48 48 50 49 45 52 56 54 55 61 62 63 67 70 72 73 74 75 75 75 72 72 71 71 67 63
25 26 26 26 31 36 28 25 31 39 42 47 42 49 40 46 45 48 49 50 48 45 54 58 57 57 63 65 66 70 73 76 77 76 76 75 74 73 73 71 72 68 60 56
27 26 26 26 30 34 30 34 36 38 36 40 37 39 43 46 47 49 49 50 54 54 56 58 61 62 68 68 73 77 81 83 81 78 77 76 76 74 72 71 67 59 52 50
31 31 34 27 36 40 35 35 37 37 37 40 42 44 45 45 47 50 50 54 54 57 56 62 67 68 68 72 77 83 85 82 79 79 79 79 76 72 69 65 57 52 50 49
33 37 40 39 38 40 29 33 33 36 36 42 43 41 42 46 50 51 52 54 56 54 58 65 68 70 73 77 81 85 82 82 81 81 82 80 75 65 57 52 49 48 48 48
36 40 41 43 41 43 27 37 38 44 43 42 44 47 51 52 52 55 55 58 58 60 62 67 73 74 76 79 83 83 82 84 84 84 83 78 68 58 52 47 47 48 47 47
35 37 37 38 43 47 37 45 48 53 51 51 48 53 53 53 55 53 56 59 61 67 73 76 77 78 83 87 92 88 84 87 87 87 82 68 56 50 47 46 45 44 46 50
31 34 36 39 46 51 44 49 52 55 55 54 56 57 58 58 61 60 61 65 71 75 78 79 80 80 84 89 95 90 90 84 95 85 66 56 51 48 47 46 45 47 50 51
34 35 34 40 45 49 47 50 52 56 60 61 61 60 60 61 63 66 70 72 72 71 76 81 83 80 84 88 89 92 93 91 88 65 55 52 50 49 47 45 48 52 53 52
38 41 42 48 53 52 53 54 54 57 60 60 59 59 60 62 65 70 72 74 77 76 77 77 80 80 80 82 87 90 90 79 62 54 51 51 50 48 47 49 53 55 54 54
43 42 48 49 54 49 50 56 58 58 62 61 60 62 64 67 69 69 74 77 77 78 78 79 78 77 79 86 91 84 62 55 53 52 52 51 49 49 51 54 56 56 56 54
50 49 50 56 51 55 59 57 59 60 62 61 65 67 68 71 74 77 78 79 78 78 79 84 85 87 83 93 70 55 53 53 53 54 52 49 50 54 56 57 58 58 56 53
55 51 57 61 57 63 61 62 63 64 67 70 70 70 71 74 78 80 79 79 79 80 81 80 83 87 90 68 54 50 51 53 53 51 50 53 56 57 59 60 60 57 54 50
53 58 60 61 56 62 63 66 66 68 71 71 72 72 76 78 80 79 78 79 79 80 84 87 87 75 58 50 49 51 52 51 50 51 55 57 59 61 61 59 54 51 48 43

GFSCGP_500_spd_015.txt.gz
Wind_Speed
3 4 5 6 7 5 5 6 8 10 5 8 10 11 11 13 15 15 15 17 19 19 21 25 27 28 26 26 30 32 36 39 41 42 44 49 50 50 53 54 53 52 53 56
6 6 5 6 9 9 7 8 9 12 14 11 14 17 16 17 16 19 20 21 20 22 24 26 29 32 31 32 32 34 36 40 45 48 48 50 52 51 54 54 56 59 62 62
7 7 8 10 9 11 11 10 11 10 15 13 13 16 19 20 22 22 22 25 27 27 27 29 32 34 32 33 33 35 39 44 49 53 55 55 53 55 54 56 59 62 65 65
9 10 12 12 12 11 14 14 14 14 15 12 14 20 21 20 22 24 27 27 27 27 28 29 31 32 32 33 35 39 43 48 50 53 55 59 57 58 60 63 64 64 64 64
12 14 14 16 17 13 14 17 16 16 15 16 17 21 22 24 27 28 29 32 34 35 33 35 35 32 36 39 41 46 50 54 54 53 54 56 57 58 59 59 59 60 61 62
16 17 17 20 22 16 15 15 14 14 16 18 19 21 24 27 30 32 34 35 39 39 41 43 42 44 44 46 51 54 56 58 55 55 56 59 59 57 57 58 61 61 63 64
17 18 19 22 24 22 20 15 16 17 16 18 21 25 28 31 35 36 38 40 43 46 47 49 49 50 52 55 58 58 59 60 59 57 56 56 58 60 62 64 67 69 71 72
20 20 21 23 23 21 20 17 17 19 20 20 25 28 29 30 36 40 43 45 45 45 48 49 52 53 56 58 58 58 59 58 58 58 59 61 63 64 67 71 74 75 75 75
17 17 19 20 21 21 20 19 21 24 27 31 29 21 22 31 37 41 45 46 47 50 50 51 53 55 56 55 54 55 55 56 56 60 61 63 65 69 73 76 77 78 78 79
12 13 16 15 17 18 20 24 27 32 35 37 35 24 25 31 38 40 42 45 44 43 44 45 47 51 52 50 53 53 55 58 63 65 66 68 71 74 77 79 80 81 81 79
12 14 17 17 18 19 23 28 31 34 36 39 43 35 36 37 43 41 37 36 37 39 41 44 47 49 48 54 59 59 59 62 66 70 70 71 74 78 81 80 76 74 73 72
16 17 20 22 22 21 25 28 32 36 38 38 42 39 38 41 39 36 38 41 43 45 44 44 47 52 56 59 61 63 63 66 70 72 72 74 81 83 81 78 77 73 72 70
22 22 24 25 26 22 24 29 34 39 40 41 43 37 38 41 40 43 44 44 44 47 53 53 55 57 58 60 64 68 70 77 78 78 79 81 82 84 83 80 80 75 69 69
23 23 26 28 29 25 22 26 33 39 41 44 36 41 37 40 41 42 43 46 53 54 55 55 56 58 60 62 63 67 73 78 80 82 83 84 88 92 84 86 86 75 68 59
26 25 26 27 30 30 26 30 32 36 36 39 36 36 40 43 44 46 48 53 54 55 56 57 58 60 62 64 68 73 76 77 80 82 86 91 93 95 87 84 83 73 62 52
31 31 31 27 35 37 29 31 35 34 32 38 40 42 46 46 48 48 50 52 54 58 59 58 58 62 65 71 73 76 80 82 84 84 84 92 92 85 86 87 70 58 52 51
33 36 38 32 33 33 26 30 33 34 37 42 44 45 44 43 46 50 51 56 56 57 60 61 63 68 71 73 77 79 83 87 88 86 86 86 87 86 83 64 50 47 48 49
34 36 39 38 37 33 20 33 37 40 41 43 45 44 46 48 51 54 59 60 60 62 62 66 68 70 75 78 80 81 82 86 87 83 82 87 86 71 53 47 45 47 48 47
31 34 38 37 39 41 26 38 41 45 48 48 50 52 54 53 57 57 58 58 63 67 69 71 72 75 78 85 85 84 85 86 90 85 83 86 65 53 47 46 46 46 45 44
34 35 36 35 41 43 36 46 51 55 56 56 57 58 58 61 64 65 66 70 71 71 72 73 77 80 83 85 87 83 87 86 84 81 79 61 52 49 49 48 47 45 44 45
32 37 36 37 42 45 43 50 51 54 59 60 61 61 62 64 66 68 70 71 72 74 75 78 82 85 83 83 83 84 88 85 75 62 54 50 51 50 48 47 46 47 49 51
34 37 36 38 44 44 47 52 56 60 61 60 59 61 61 65 68 71 73 74 74 74 78 82 84 84 83 86 87 89 82 67 58 51 48 50 50 49 48 49 51 53 55 55
36 33 39 42 46 43 49 57 61 63 64 62 61 66 69 72 74 76 77 78 79 82 84 85 85 83 83 88 96 80 66 58 50 49 51 51 51 51 53 54 56 57 59 59
41 38 42 47 46 50 56 57 59 64 63 63 65 69 72 73 76 77 76 77 80 83 84 85 86 84 87 90 74 63 54 49 50 51 51 52 53 55 57 60 61 61 59 57
44 44 47 54 56 60 58 58 65 65 64 66 72 75 76 78 77 78 80 81 80 81 82 85 85 91 81 68 56 50 47 49 50 49 51 53 56 59 60 60 57 54 52 48
47 52 57 62 63 66 64 65 70 70 68 72 75 75 74 73 74 78 77 78 79 80 83 85 89 73 63 53 46 46 49 47 47 50 53 57 59 58 55 51 48 46 42 39

GFSCGP_500_spd_018.txt.gz
Wind_Speed
2 3 3 5 6 6 7 9 8 7 4 7 8 11 13 14 17 18 19 21 22 24 24 26 28 29 31 32 33 33 38 40 41 41 45 48 50 51 53 54 55 56 56 56
4 3 4 5 6 8 7 9 9 10 7 7 13 14 14 17 19 20 22 23 23 24 27 27 27 28 30 31 32 35 40 43 45 47 52 55 55 57 57 57 56 58 60 62
7 7 7 7 8 11 10 10 11 11 14 12 15 17 18 17 18 18 20 23 25 27 27 28 29 29 31 34 36 39 42 46 49 52 56 55 56 58 59 59 56 56 58 59
9 10 11 12 12 12 14 16 15 16 15 14 17 21 20 20 21 25 27 30 30 31 30 32 30 32 34 34 36 41 44 46 50 54 56 56 56 57 56 55 56 57 58 58
13 14 15 16 16 14 16 18 19 18 15 15 15 17 20 22 25 29 33 34 34 35 34 36 38 38 40 41 44 48 50 51 53 53 56 57 56 54 55 54 56 58 60 62
16 16 19 21 20 17 18 19 20 18 16 17 17 19 20 26 33 37 37 38 39 39 41 42 44 45 46 46 48 50 50 50 52 54 55 55 56 58 59 62 63 64 65 67
19 19 21 22 23 22 21 21 21 19 18 18 19 23 26 32 37 38 38 39 40 42 43 45 47 49 50 50 50 52 54 57 57 57 63 66 64 63 67 69 72 73 74 75
19 19 21 22 22 22 22 20 21 22 22 22 25 28 35 35 37 39 41 42 43 45 47 49 50 51 51 52 54 56 57 57 58 61 67 66 65 65 69 72 75 77 78 79
14 15 17 18 19 20 19 20 20 23 26 27 29 27 35 34 39 40 40 41 42 44 45 47 47 47 49 51 53 56 58 59 61 64 69 68 69 70 72 79 80 80 81 82
13 14 13 12 15 17 19 21 24 27 31 33 33 24 25 37 39 38 35 37 38 39 40 42 43 45 48 53 54 56 58 60 62 65 71 74 74 77 81 84 83 81 82 85
16 18 17 17 20 22 23 25 28 30 31 34 37 28 29 31 32 33 34 35 37 41 42 41 43 47 52 52 55 60 63 64 67 70 71 71 73 77 80 84 84 84 85 85
20 21 23 22 23 24 25 27 30 33 35 33 35 32 34 37 33 33 35 40 43 42 43 46 50 53 58 60 61 63 65 66 69 71 73 78 80 83 87 88 89 92 89 88
20 21 22 22 24 25 26 27 30 34 36 35 38 34 34 37 39 40 44 46 46 46 51 55 60 62 63 65 65 67 68 69 72 76 78 79 81 85 88 90 91 90 88 84
24 25 27 28 26 26 26 29 32 37 40 42 35 39 33 38 39 43 45 47 51 54 59 62 62 63 66 66 67 69 70 73 75 78 81 84 89 92 89 90 92 88 81 74
28 29 32 33 32 30 28 30 34 40 39 41 38 38 41 42 46 48 49 52 56 60 60 63 66 67 67 68 70 72 73 75 79 82 85 90 95 93 92 89 83 76 65 50
35 34 33 32 35 35 28 31 35 34 34 37 40 42 42 44 47 49 52 57 58 62 64 66 67 67 68 70 71 72 73 78 82 86 87 87 89 88 83 74 67 48 40 41
41 40 38 30 35 32 25 28 34 35 34 37 41 43 44 45 50 51 54 57 61 65 66 67 69 71 72 73 74 73 77 83 88 87 86 90 89 81 70 62 52 43 42 43
42 44 45 40 34 32 21 30 37 38 37 39 45 45 49 51 54 56 59 61 65 67 69 72 73 74 75 75 77 79 82 88 88 87 87 86 75 67 59 51 48 47 45 44
46 46 44 43 42 42 23 30 37 42 41 45 47 51 55 58 59 62 61 66 70 75 77 78 80 79 78 79 82 83 87 88 90 90 82 71 64 56 51 49 48 47 46 45
47 47 43 41 43 44 32 40 43 47 50 53 55 56 59 62 65 66 70 75 78 81 84 83 82 80 81 84 83 85 83 87 91 81 69 60 52 49 50 48 48 47 48 50
48 42 37 38 40 40 36 42 47 50 55 56 60 63 65 68 69 73 73 75 81 83 82 82 80 81 85 88 87 87 87 86 78 67 58 51 49 50 49 49 51 53 54 55
40 38 35 37 37 38 43 47 49 53 56 58 63 66 68 68 72 72 72 77 86 84 82 72 74 84 89 87 85 87 84 74 64 55 50 51 51 50 52 55 57 58 58 58
39 35 41 38 41 41 48 52 55 59 62 65 65 72 66 67 73 75 72 81 81 81 78 78 79 80 84 85 88 84 73 62 53 51 52 49 51 54 57 58 59 57 54 52
34 34 39 45 42 48 53 56 60 61 65 68 71 67 71 72 78 77 78 87 82 83 82 79 78 79 85 85 79 71 61 51 48 49 48 50 53 56 58 57 53 51 49 46
37 42 45 50 53 58 57 63 65 67 69 72 65 73 77 72 66 74 84 82 82 79 79 79 76 76 79 75 67 59 50 46 47 47 48 51 54 55 53 51 49 47 44 40
42 46 52 56 59 62 63 65 67 72 76 72 70 74 72 70 72 78 79 79 75 75 76 79 74 77 75 65 59 48 45 45 45 45 48 51 53 52 49 46 42 42 41 40

GFSCGP_500_spd_024.txt.gz
Wind_Speed
7 6 6 6 5 4 2 3 4 6 9 12 12 13 13 16 16 15 15 14 15 16 20 23 24 28 32 34 36 38 40 39 40 41 43 45 47 49 51 52 52 53 54 56
5 6 7 7 4 3 3 5 7 7 8 11 11 14 15 16 16 17 18 17 18 20 24 27 30 33 34 36 37 39 40 41 43 45 46 48 50 51 52 51 53 55 57 58
6 8 8 7 6 6 7 9 10 11 12 14 16 18 18 17 18 19 19 18 19 22 26 30 33 35 36 37 38 40 41 44 46 48 49 49 50 50 51 54 58 60 61 62
9 9 9 9 10 11 12 12 13 13 15 16 16 21 18 18 19 20 18 20 23 27 30 31 32 34 36 38 40 41 43 45 45 46 48 50 51 53 54 57 61 64 63 65
10 11 12 13 14 15 16 16 16 17 17 18 17 18 18 20 21 22 23 26 30 33 33 32 35 37 40 42 43 44 43 44 46 49 50 51 55 60 63 65 65 68 71 73
12 13 14 16 17 18 18 19 20 22 22 20 18 20 22 22 24 26 28 32 34 35 35 35 38 41 41 41 41 42 45 48 51 53 54 56 59 62 67 70 72 74 76 78
14 17 19 20 20 21 21 20 21 21 22 22 20 22 24 23 27 30 33 35 36 35 38 40 41 42 43 43 44 48 51 54 56 58 61 64 68 69 71 74 76 77 78 79
13 11 11 12 14 15 17 17 18 19 20 22 22 25 24 27 29 32 34 36 37 38 39 40 42 41 43 45 49 52 54 55 59 62 65 68 69 71 73 74 76 77 78 79
6 7 8 9 11 13 14 15 17 18 19 21 23 25 27 28 31 31 33 36 38 39 39 38 40 43 45 50 53 53 55 58 60 63 66 67 69 70 73 76 79 80 81 82
7 8 11 13 14 16 17 18 20 20 23 23 24 26 28 29 32 34 35 36 39 37 38 42 45 47 50 51 53 55 58 59 61 63 66 70 73 75 77 78 79 80 80 82
10 12 14 16 17 19 20 22 23 25 26 28 28 25 28 33 36 37 38 34 36 38 42 44 46 48 52 54 57 59 61 64 67 69 69 73 76 77 78 78 79 81 85 86
10 14 17 20 23 24 25 26 28 29 32 33 33 28 30 37 40 38 35 34 38 41 45 47 50 54 55 57 60 64 66 69 72 72 73 77 77 79 78 79 82 86 88 91
13 18 23 24 24 26 27 29 29 32 35 35 38 33 37 41 40 36 35 38 40 46 49 52 55 56 59 63 66 67 68 70 73 74 77 80 83 84 86 85 87 90 91 88
17 24 24 28 30 31 31 31 32 34 34 37 32 39 31 40 38 38 40 42 45 51 53 56 59 62 65 69 70 72 73 77 77 78 82 87 87 86 91 91 90 90 87 73
21 26 27 32 35 33 32 34 37 37 35 38 33 33 36 34 35 37 41 43 48 52 56 60 63 66 69 71 74 76 78 81 82 83 88 92 94 93 92 91 91 81 68 58
26 30 33 34 38 37 33 35 36 37 36 38 38 35 35 36 39 39 44 48 53 57 60 64 69 72 76 77 77 78 78 79 86 90 91 92 95 92 89 85 74 62 53 53
30 36 41 40 44 42 38 36 34 33 33 35 35 36 36 39 41 43 50 54 59 63 67 70 74 78 78 79 78 78 84 86 85 89 93 94 89 87 84 74 60 52 52 51
33 40 46 50 51 47 38 38 31 29 26 31 32 34 37 41 45 50 57 59 63 66 70 76 79 80 77 74 78 84 87 84 89 90 89 85 84 80 72 60 51 51 51 52
36 44 51 54 54 48 32 34 33 31 22 28 31 35 40 45 51 54 60 63 66 70 74 77 77 72 75 85 89 88 85 87 88 86 82 80 73 68 61 53 51 50 52 54
39 47 54 51 49 46 39 31 29 28 32 32 33 39 46 52 57 62 66 70 73 76 79 81 78 77 78 81 81 82 84 83 84 78 74 71 68 60 53 50 49 51 53 55
42 52 49 47 44 39 34 33 33 35 40 43 48 52 56 60 65 69 71 73 75 72 73 83 79 81 81 81 82 82 80 83 77 72 70 68 62 54 49 48 50 52 53 56
46 52 44 43 37 37 35 37 40 42 45 49 52 56 60 65 70 74 77 78 77 78 78 79 80 79 80 80 81 80 79 76 71 69 66 60 55 48 46 47 50 51 53 57
45 43 40 38 32 37 41 45 46 48 51 55 58 62 65 70 74 77 73 75 77 78 80 80 82 80 80 83 81 77 75 72 68 63 57 54 48 45 44 47 50 50 54 57
45 38 37 39 35 42 45 48 51 53 56 59 61 66 70 74 74 73 74 76 78 79 81 81 81 82 84 82 79 76 71 67 61 55 52 49 43 41 43 47 48 49 54 54
35 36 40 41 45 48 48 51 54 57 60 65 70 73 75 76 77 78 78 79 81 82 82 83 83 84 81 78 75 72 68 62 58 54 49 42 38 38 42 47 46 49 53 49
35 37 43 47 49 52 56 59 60 63 66 69 73 75 76 78 77 77 78 79 81 82 82 82 82 81 78 75 72 69 66 62 56 47 39 35 33 36 42 45 44 47 50 44

GFSCGP_500_spd_027.txt.gz
Wind_Speed
7 8 8 8 6 7 8 7 8 9 10 11 12 16 15 17 19 20 19 19 20 20 22 23 25 27 31 33 37 39 42 43 45 46 47 49 50 52 53 53 52 53 53 55
8 10 10 11 10 10 9 8 9 9 9 12 13 16 17 18 20 20 22 23 22 22 23 24 27 31 35 38 41 43 44 46 47 49 50 51 53 54 54 54 54 57 58 58
10 10 10 9 10 10 11 11 10 12 12 13 15 22 22 22 23 23 23 23 24 23 25 27 31 35 38 41 42 44 46 47 48 51 52 53 54 52 53 55 56 57 59 64
8 9 10 11 12 12 15 13 14 14 14 12 12 10 27 22 23 24 24 24 25 26 29 33 35 38 40 41 43 46 48 49 49 51 50 50 52 53 56 58 59 61 64 64
9 11 12 13 15 16 18 17 17 18 19 19 19 16 31 27 25 25 25 26 27 29 34 37 40 41 41 43 45 48 48 48 47 48 50 53 54 56 58 62 65 66 68 70
12 13 14 15 17 18 19 20 20 21 21 22 18 17 22 32 26 27 27 29 32 35 39 41 42 42 44 44 44 46 44 46 48 51 54 55 57 60 64 66 68 71 73 73
13 14 16 17 18 18 19 20 19 21 21 15 20 18 29 32 29 30 31 33 37 40 42 42 43 44 45 44 43 44 47 50 53 54 57 60 63 66 69 71 73 73 73 73
12 10 10 10 9 10 10 12 12 14 17 14 23 21 30 25 29 32 34 36 39 39 41 43 44 44 42 44 46 48 50 52 56 60 62 64 67 69 71 74 78 77 76 75
6 6 7 9 10 12 14 15 16 18 19 21 20 29 30 31 32 33 35 37 38 40 42 44 41 42 43 45 47 49 53 57 59 60 64 66 66 67 68 72 74 75 78 81
4 6 8 11 13 13 17 18 20 21 24 25 13 21 24 35 33 34 36 36 41 42 41 40 41 43 45 48 52 56 58 59 61 64 68 68 70 71 74 75 77 80 82 87
4 6 9 12 14 17 19 20 21 23 27 29 30 23 35 37 40 40 41 40 41 41 41 42 43 46 50 53 57 59 62 65 69 72 72 72 74 76 79 81 84 86 85 87
4 7 13 15 16 18 19 22 23 25 27 32 31 29 36 37 40 40 41 40 38 39 41 46 49 53 56 59 62 64 67 71 74 77 77 80 80 79 82 85 83 88 89 89
6 11 16 20 20 24 26 29 29 29 29 27 32 28 36 36 37 38 39 35 39 44 45 48 51 56 61 65 67 71 74 76 78 78 78 79 80 85 85 83 86 87 89 86
12 15 19 22 26 30 33 35 39 38 36 35 27 32 26 30 38 38 37 40 40 42 47 52 56 61 65 70 73 75 79 81 81 78 79 83 86 85 85 87 86 89 86 80
14 18 21 25 29 33 38 42 43 41 38 38 29 28 29 33 32 34 37 39 41 46 51 57 62 66 70 74 77 80 82 82 80 76 83 85 84 86 86 84 86 81 74 68
19 22 26 28 33 38 43 44 42 38 36 33 33 30 28 27 29 29 34 41 44 50 54 61 66 70 76 80 83 85 84 83 78 86 86 84 85 86 84 84 79 73 67 58
24 28 30 32 38 42 46 41 38 34 35 36 32 30 30 32 35 37 42 46 52 58 63 67 72 76 79 81 82 65 73 89 85 85 85 85 85 83 79 76 70 65 59 52
28 31 36 39 43 48 45 41 37 32 28 28 31 32 34 38 42 44 50 54 58 63 68 73 77 78 79 76 68 82 86 84 85 85 84 84 81 77 74 70 65 57 53 50
31 35 40 42 46 50 42 37 34 30 23 28 30 33 37 41 46 50 55 58 62 68 72 76 79 79 77 79 81 81 84 84 84 84 85 79 75 72 67 62 56 52 50 49
33 37 41 43 47 50 39 40 30 30 31 31 36 40 44 47 52 55 59 65 71 77 79 82 82 78 79 79 82 83 83 82 83 85 79 75 71 66 60 55 51 49 48 49
35 39 40 44 49 47 40 34 34 33 38 42 45 48 50 55 59 62 68 73 78 80 82 81 80 81 82 84 84 86 85 83 84 82 77 70 65 59 53 51 48 47 47 49
37 41 42 47 48 45 40 37 39 41 43 46 49 53 57 60 64 69 75 78 80 81 80 80 82 83 83 84 85 85 84 83 82 77 71 67 62 56 51 47 44 44 46 49
36 40 44 47 40 39 41 44 44 46 49 52 55 58 61 65 70 75 78 80 81 79 80 81 82 84 84 84 84 84 83 78 79 74 70 65 59 52 44 40 39 41 46 46
36 42 48 48 35 39 41 43 46 49 53 56 58 62 66 70 74 76 78 77 78 79 80 82 84 85 85 83 81 79 78 74 73 69 61 53 45 37 34 33 36 41 44 45
39 46 50 49 44 44 43 45 49 53 57 60 63 66 71 74 76 78 78 79 78 80 82 84 85 83 81 79 76 75 74 69 61 53 45 37 30 26 30 28 35 41 43 44
44 47 48 47 44 46 49 54 55 57 61 64 68 72 74 76 77 79 78 78 81 83 84 83 81 79 77 75 72 69 64 59 51 40 32 24 20 29 23 29 36 40 41 43

GFSCGP_500_spd_030.txt.gz
Wind_Speed
12 14 1 16 6 9 16 13 7 11 7 9 11 14 15 14 17 17 19 22 25 27 26 28 27 26 26 30 35 37 41 42 46 45 48 52 53 55 55 55 55 53 54 53
8 8 7 11 9 10 17 13 13 12 9 10 15 16 17 15 20 21 23 24 25 26 27 29 29 29 31 34 38 41 44 47 48 49 53 53 54 55 54 54 55 57 58 57
7 4 7 8 9 9 12 13 12 12 11 11 14 17 23 19 20 24 28 27 27 27 28 29 30 32 36 39 42 45 48 48 48 52 55 54 53 52 53 56 58 59 61 65
5 7 8 10 11 10 16 10 14 14 15 14 17 10 28 26 27 24 25 27 28 31 30 30 32 36 39 42 45 47 48 50 50 52 52 52 51 53 56 58 60 63 65 66
8 10 10 12 12 13 17 17 17 18 19 19 19 18 21 34 34 33 23 26 28 33 33 35 37 41 43 44 46 47 50 50 50 48 48 51 53 54 58 61 63 64 66 69
10 11 12 12 14 16 18 20 20 21 21 21 15 14 25 27 32 34 26 31 31 33 38 41 42 46 46 45 47 47 49 47 50 50 50 53 56 57 59 63 66 69 70 72
11 11 11 13 14 12 14 14 13 13 11 11 13 14 26 30 33 40 37 36 37 39 40 43 46 47 48 49 50 44 43 45 48 51 56 59 60 63 66 69 71 71 71 73
6 4 5 6 7 9 10 10 11 11 11 16 19 20 31 25 29 34 38 37 37 39 41 45 46 46 47 47 45 44 45 49 53 57 60 63 66 68 71 74 75 73 73 73
6 3 4 5 8 10 10 12 14 16 17 18 15 20 26 30 29 32 35 37 39 40 43 44 46 47 43 42 44 48 51 55 58 61 64 67 70 72 73 71 70 71 74 77
3 2 3 5 7 9 13 14 17 20 22 22 11 15 27 34 40 40 42 44 44 40 41 43 40 40 41 44 47 50 52 58 63 66 70 72 75 78 76 74 75 76 80 83
3 1 2 6 9 13 18 21 19 20 24 26 24 20 33 35 39 39 44 45 48 41 40 40 39 41 43 46 50 54 58 63 67 71 75 80 82 82 80 81 80 84 84 85
4 2 6 10 12 14 18 21 24 27 27 29 33 28 31 32 35 36 36 41 40 37 33 38 40 42 46 52 57 61 65 70 76 81 83 85 86 78 78 80 81 82 81 82
4 6 11 14 15 18 23 28 33 36 34 27 31 27 29 30 30 36 43 43 40 40 43 42 45 49 53 58 64 69 74 79 81 84 84 82 72 73 86 86 85 82 83 81
8 9 11 14 18 24 28 33 39 42 39 37 25 29 24 23 34 40 40 38 40 42 43 45 49 55 60 64 70 77 81 82 84 84 79 73 78 87 87 86 83 83 81 76
11 13 15 17 20 25 30 36 42 42 37 36 31 26 27 30 28 29 32 32 37 40 44 50 55 60 65 73 78 82 83 85 83 81 82 85 84 85 84 84 82 79 74 70
15 17 19 22 24 27 32 36 42 43 39 35 31 26 23 24 28 28 32 36 43 47 50 55 60 67 73 78 82 84 86 85 84 85 84 85 86 85 83 83 80 74 69 63
19 22 23 25 29 31 36 37 43 41 36 34 30 26 28 28 30 36 39 41 46 51 55 60 66 74 79 83 86 87 86 85 84 84 85 87 88 82 80 78 71 65 60 55
22 25 27 29 32 34 37 39 42 38 34 31 29 30 33 36 39 43 46 49 53 57 62 67 75 79 82 84 85 87 88 87 88 88 89 88 86 79 76 71 65 59 54 49
26 28 32 35 37 38 39 47 39 39 32 32 29 31 34 37 41 45 51 55 60 63 68 74 77 81 83 85 89 88 87 90 93 91 92 86 87 79 72 68 61 54 48 46
30 32 35 38 41 43 44 46 49 42 36 37 36 36 39 41 46 50 52 57 62 67 73 77 79 83 87 88 85 87 88 89 89 84 83 77 74 70 69 63 54 45 42 40
33 35 37 41 43 43 46 49 47 45 42 38 40 41 44 47 52 56 60 65 70 74 78 82 83 84 84 83 86 88 89 88 84 78 62 74 69 54 56 56 43 37 36 32
37 37 40 42 44 46 50 51 51 46 43 43 44 46 50 54 57 61 66 70 74 77 81 83 84 83 84 86 89 90 88 83 80 72 69 55 55 47 51 42 32 30 30 32
41 39 43 45 44 46 53 55 51 48 46 47 49 52 55 58 62 67 70 75 78 81 83 82 81 84 86 90 90 88 83 77 74 68 60 52 51 44 39 29 25 29 27 35
40 39 43 47 46 48 51 47 45 46 47 49 51 56 60 64 68 70 74 77 80 82 81 83 84 86 89 90 86 78 75 71 66 59 52 47 40 30 22 20 26 24 31 38
38 40 41 45 49 50 49 46 46 48 50 54 57 59 62 66 69 73 75 78 80 79 81 83 85 88 89 86 77 72 68 59 54 47 39 33 26 18 16 22 20 26 34 38
38 40 44 49 51 48 45 46 47 49 52 55 58 62 66 70 73 75 76 79 80 82 83 84 86 87 83 75 70 63 54 47 40 33 27 22 17 19 21 19 24 30 35 37

GFSCGP_500_spd_033.txt.gz
Wind_Speed
18 19 17 13 3 7 16 16 16 8 2 8 9 18 18 11 14 17 19 20 24 26 25 28 31 31 29 27 30 34 39 42 44 45 48 46 51 54 56 55 54 52 52 54
19 17 11 10 6 6 16 16 13 10 4 8 10 17 19 17 17 19 16 19 22 24 26 28 31 33 33 32 35 37 41 44 48 50 51 51 52 54 53 53 55 57 57 57
11 12 7 6 6 7 13 16 15 14 9 8 14 19 20 19 16 18 18 19 20 21 23 27 30 33 34 36 39 42 44 47 50 50 49 50 50 49 50 52 54 56 60 62
9 9 8 8 5 11 11 8 12 13 14 13 18 17 24 24 24 24 22 20 25 24 23 28 32 33 36 38 42 46 47 48 47 49 50 48 47 49 50 53 58 60 61 64
6 4 6 5 7 11 10 12 14 15 17 17 18 22 22 28 28 29 23 24 29 28 29 29 32 36 38 41 44 47 48 49 49 45 42 44 47 50 54 58 61 63 65 68
8 7 8 9 10 13 15 17 18 19 21 20 19 23 27 33 29 28 24 30 34 41 38 37 37 38 38 40 42 45 48 49 49 49 49 49 51 54 58 61 64 67 70 72
9 9 9 10 9 11 10 10 10 9 12 12 12 16 24 23 27 34 34 35 37 37 42 41 41 42 42 41 43 45 43 42 44 47 49 53 58 61 65 69 72 74 76 78
8 7 6 4 3 3 6 7 8 10 11 12 14 21 24 26 30 35 37 38 37 38 40 44 43 47 43 46 46 43 42 44 46 49 53 57 62 67 71 75 78 80 82 81
2 4 4 0 4 6 7 9 10 11 11 11 13 21 27 23 30 40 35 35 37 47 47 47 47 45 42 40 41 41 42 44 47 51 57 64 69 73 77 79 79 80 75 77
6 4 1 2 3 5 8 11 12 14 18 15 11 21 25 28 32 37 44 49 49 42 44 41 37 37 37 39 40 41 45 49 54 61 68 72 76 80 80 78 78 77 79 76
6 4 3 2 3 4 9 13 18 20 24 25 23 22 29 31 31 34 37 42 42 41 41 42 39 37 35 38 43 48 51 59 65 70 75 79 83 85 85 85 84 83 82 83
8 6 3 3 6 9 12 14 18 23 27 28 28 21 25 31 31 31 32 32 37 41 45 40 38 39 42 47 51 54 60 65 72 77 81 85 87 88 87 82 84 84 84 84
8 7 5 6 8 9 13 19 26 31 34 34 32 19 27 34 28 31 33 33 37 34 34 38 41 45 48 52 56 61 67 74 78 82 86 89 90 89 84 81 82 85 85 81
8 8 8 10 12 15 19 23 27 31 35 39 32 31 23 31 32 26 26 24 25 29 35 39 44 49 54 59 64 69 75 79 83 86 87 87 86 86 83 83 84 84 81 75
11 10 11 14 17 20 23 25 28 31 36 39 36 31 32 28 21 24 23 27 31 34 38 43 48 52 57 61 67 73 78 82 86 86 86 85 86 84 88 88 90 87 74 66
13 13 14 17 19 22 24 26 29 32 37 36 37 32 35 26 23 23 27 30 34 38 43 48 52 57 61 66 71 77 82 85 87 87 89 90 92 98 99 92 85 74 68 63
16 17 18 18 22 24 27 29 30 33 36 40 39 36 29 27 28 31 34 36 39 44 47 52 57 62 67 72 78 82 85 88 88 90 92 93 92 90 85 72 62 68 75 59
19 20 21 22 25 27 32 35 34 36 39 40 38 37 37 35 35 36 37 41 45 50 54 59 63 69 73 77 82 86 88 89 91 93 91 88 85 80 74 44 66 69 63 52
21 24 25 27 30 32 36 38 37 39 41 38 39 39 39 38 39 41 45 49 52 56 60 64 68 72 76 80 84 88 88 87 89 89 87 83 78 71 58 47 60 62 52 52
25 27 29 32 35 38 41 42 44 45 43 45 43 40 36 37 39 41 44 48 52 56 61 67 71 76 80 83 86 89 87 87 90 89 88 79 70 63 37 45 56 58 48 42
29 31 32 35 38 39 42 46 44 43 47 46 42 39 38 39 41 45 48 52 58 63 68 71 74 78 83 86 87 87 88 90 89 87 80 69 62 55 41 47 51 54 37 28
33 35 36 38 40 43 47 48 45 45 49 47 43 41 41 43 47 49 53 58 62 67 71 75 78 82 85 85 86 87 89 90 85 79 68 56 51 45 39 38 36 22 22 23
37 38 39 39 41 45 48 49 47 47 48 45 44 44 45 48 51 55 59 64 67 71 75 79 81 82 83 84 86 87 88 82 76 65 53 46 41 34 26 22 18 20 19 25
40 41 42 44 45 48 52 52 51 51 49 46 46 47 50 54 57 60 64 67 70 73 77 80 81 82 82 84 85 87 83 72 63 48 39 32 26 23 22 23 22 20 24 29
37 38 39 43 45 49 50 53 52 51 49 48 48 51 55 58 61 65 68 71 73 75 78 79 81 82 83 84 84 81 73 60 47 35 26 23 25 26 24 23 22 24 28 32
36 38 43 45 44 47 51 51 51 52 52 53 54 57 59 63 66 69 72 74 75 77 78 79 81 82 82 82 79 72 62 47 35 26 24 25 27 27 25 25 26 28 31 33

GFSCGP_500_spd_036.txt.gz
Wind_Speed
26 26 26 24 13 11 6 6 6 2 3 6 13 15 12 8 6 10 15 16 18 20 23 26 27 29 27 25 29 31 34 39 43 46 49 47 50 49 48 52 51 49 48 48
23 20 18 19 15 19 11 11 7 1 5 8 13 16 15 14 14 15 17 16 15 20 24 26 27 26 29 31 31 36 42 45 47 50 51 52 53 53 54 53 52 52 53 56
19 16 14 13 10 17 15 14 11 11 8 13 16 18 17 19 18 16 14 14 18 21 25 27 27 28 30 35 38 41 44 46 48 50 51 52 52 52 51 51 51 54 56 59
14 17 13 10 8 8 7 11 16 15 13 14 18 22 22 23 25 24 16 14 18 22 27 26 23 28 31 34 37 40 43 46 48 50 51 52 50 48 49 52 55 57 60 62
12 12 10 9 9 9 9 12 13 15 18 15 21 24 28 28 29 28 20 16 15 24 28 26 33 34 33 35 37 40 44 47 47 48 47 46 46 47 49 52 55 58 62 65
14 12 9 8 9 9 10 12 15 17 19 19 22 24 27 28 29 31 24 19 24 29 33 34 35 34 34 39 40 46 49 49 48 45 44 45 45 46 51 56 63 67 70 74
13 11 10 10 11 10 8 7 8 8 9 10 13 18 23 25 23 25 26 31 31 33 37 35 33 31 40 42 45 47 46 45 44 43 43 46 50 55 61 66 70 74 78 81
13 13 10 8 6 3 3 3 5 6 7 10 15 18 23 28 30 30 28 34 33 41 41 34 42 46 43 39 37 37 38 37 37 40 46 50 55 61 67 72 75 79 83 86
10 10 8 6 5 3 1 2 1 2 6 10 14 18 22 25 26 28 27 32 37 41 51 47 48 37 37 38 36 35 34 37 41 45 50 56 63 69 75 80 84 87 89 90
11 11 8 7 5 5 1 2 5 8 12 15 20 23 25 26 31 34 37 39 40 38 39 35 33 38 35 31 33 36 41 44 49 55 60 65 70 76 81 85 89 90 90 88
12 11 9 7 5 2 2 5 8 13 16 19 22 25 27 28 28 31 33 34 35 32 33 35 38 42 35 37 41 44 48 53 57 61 66 71 77 81 85 88 89 88 88 88
12 11 11 7 4 4 5 7 12 15 19 22 26 28 31 33 34 34 34 32 30 33 37 37 38 36 38 41 45 49 53 57 62 66 71 77 82 86 89 88 88 88 88 87
14 13 10 8 7 7 9 12 17 20 22 24 28 29 33 35 34 31 28 27 26 26 28 32 37 40 42 46 51 55 59 64 69 74 78 82 86 87 87 86 86 87 90 94
15 13 11 11 11 12 14 17 22 24 25 26 28 27 28 26 24 22 20 21 23 27 32 35 38 42 46 51 56 60 65 69 73 77 80 84 86 87 87 90 94 97 94 86
15 13 13 13 13 13 16 18 22 25 27 29 29 32 30 27 24 25 27 27 29 32 34 37 41 46 50 54 58 63 67 71 75 79 82 84 89 91 94 95 95 93 84 72
17 18 17 16 16 17 20 21 24 27 28 30 34 36 36 37 34 33 31 31 33 35 37 41 45 49 53 56 61 65 70 74 78 83 88 91 91 94 95 95 92 80 70 53
18 18 18 18 20 22 22 24 26 29 31 32 35 36 38 37 36 34 35 36 36 38 41 44 47 50 55 62 67 70 75 81 84 87 88 90 91 93 93 88 77 68 55 41
20 20 21 21 23 25 27 27 29 32 31 35 37 40 40 41 39 35 34 36 39 41 45 48 51 58 62 67 72 77 82 85 85 87 87 89 91 89 85 77 66 57 36 39
22 23 24 25 26 28 30 30 33 34 34 39 40 42 42 42 40 38 38 39 42 45 49 53 58 62 67 72 75 79 83 85 85 85 87 89 90 87 78 64 55 50 43 46
24 26 27 27 31 32 32 33 35 37 37 40 43 42 43 43 40 41 41 43 46 50 54 58 62 66 71 74 77 82 85 84 84 86 88 89 87 76 60 50 44 38 32 34
27 30 30 31 34 35 36 37 39 40 42 47 47 46 46 44 43 43 44 46 50 55 59 63 67 71 74 77 81 84 85 85 85 86 88 84 72 56 43 36 29 23 22 22
31 33 32 34 36 38 38 40 41 42 46 48 48 48 48 47 47 47 49 53 57 60 64 67 72 75 77 80 83 84 84 84 85 86 83 71 54 38 28 28 28 27 26 25
34 35 36 37 38 39 41 42 43 48 51 50 49 50 50 49 50 53 58 61 63 65 69 73 76 77 80 82 82 84 84 84 84 82 71 58 40 28 28 30 29 28 28 28
36 39 40 41 39 38 41 46 50 52 51 52 52 53 52 52 54 59 62 63 65 69 73 76 77 79 80 80 81 83 82 82 80 70 60 44 31 27 29 30 28 28 29 30
37 40 42 44 40 43 46 50 52 52 52 53 55 55 55 56 59 59 62 65 69 73 76 77 79 78 79 80 81 81 80 78 69 60 49 35 27 27 29 29 28 28 29 31
35 37 41 40 40 43 47 51 52 52 53 55 56 56 57 59 59 62 66 70 72 74 75 77 77 78 79 80 81 79 75 67 61 51 39 30 26 26 28 28 26 27 29 32